Location: Winthrop
(48.4780°N, 120.1850°W)
Time: 07:38:50
(UTC-08:00)

SR - Visible Passes

Search period start: 29 January 2023 00:00
Search period end: 08 February 2023 00:00
Orbit: 581 x 870 km, 66.7° (Epoch: 28 January)

Date Brightness Start Highest point End Pass type
(mag) Time Alt. Az. Time Alt. Az. Time Alt. Az.
29 Jan ? 17:25:50 10° W 17:29:58 25° NW 17:33:53 10° NNE visible
30 Jan ? 18:20:28 10° NW 18:22:27 12° NNW 18:24:22 10° N visible
31 Jan ? 17:28:07 10° WNW 17:31:24 18° NNW 17:34:33 10° N visible
02 Feb ? 17:30:47 10° NW 17:32:56 13° NNW 17:35:02 10° N visible
07 Feb ? 20:10:17 10° N 20:10:24 10° N 20:10:24 10° N visible
